Regional Weather Roundup
Issued by NWS Goodland, KS

Home | Current Version | Previous Version | Text Only | Print | Product List | Glossary Off
Versions: 1 2 3 4 5 6 7 8 9 10 11 12 13 14 15 16 17 18 19 20 21 22 23 24 25 26 27 28 29 30 31 32 33 34 35 36 37 38 39 40 41 42 43 44 45 46 47 48 49 50

000
ASUS43 KGLD 060508
RWRGLD

GOODLAND FORECAST AREA HOURLY WEATHER ROUNDUP
NATIONAL WEATHER SERVICE GOODLAND KS
1000 PM MST THU MAR 05 2015

...OFFICIAL OBSERVATIONS...

CITY           SKY/WX    TMP DP  RH WIND       PRES   REMARKS
GOODLAND KS    CLEAR     29  20  69 W9        30.29S
HILL CITY KS   CLEAR     32  13  45 W7        30.29S
IMPERIAL NEB     N/A     30  14  51 W9        30.25S
MCCOOK NEB     CLEAR     29  15  56 W8        30.25R
AKRON CO       CLEAR     27  17  66 SW8       30.26S
BURLINGTON CO  CLEAR     26  19  74 W7        30.28S
LIMON CO       PTCLDY     8   5  87 N6        30.29R
$$

...UNOFFICIAL OBSERVATIONS...

CITY           SKY/WX    TMP DP  RH WIND       PRES   REMARKS
COLBY KS       CLEAR     32  23  69 W12       30.29S
GOVE KS          N/A     30  32 100 MISG        N/A
NORTON KS      CLEAR     25  10  54 SW9       30.26R
SHARON SPRINGS   N/A     29  21  71 S5          N/A
YUMA CO          N/A     25  18  73 SW6         N/A
$$


USA.gov is the U.S. government's official web portal to all federal, state and local government web resources and services.